GFSFLT1_con_mlcape_123.txt.gz
CAPE
340 151 193 237 113 127 86 10 1 2 2 0 0 0 0 0 0 0 0 1 5 8 9 11 9 7 6 6 6 8 11 3 7
354 152 208 203 81 88 72 1 3 1 0 0 0 0 0 0 0 0 0 5 9 9 9 9 8 7 9 3 7 5 5 9 7
359 196 150 95 102 109 6 2 3 0 0 0 0 0 0 0 0 1 2 6 8 4 8 5 5 6 8 7 6 7 6 7 6
139 161 146 126 149 100 3 1 0 0 0 0 0 0 0 0 0 0 2 4 8 9 8 8 7 8 8 6 5 6 8 5 5
78 143 167 142 84 66 0 0 0 0 0 0 0 0 0 0 0 0 1 5 6 5 5 5 5 6 3 5 4 4 3 6 5
44 25 120 110 74 0 0 0 0 0 0 0 0 0 0 0 0 0 1 4 4 4 3 4 2 2 2 2 1 1 1 2 2
35 53 104 93 24 0 0 0 0 0 0 0 0 0 0 0 0 0 0 1 2 2 1 1 1 0 1 0 0 0 0 0 0
40 66 45 72 0 0 0 0 0 0 0 0 0 0 0 0 0 0 0 0 1 1 0 1 0 0 0 0 0 0 0 0 0
7 14 14 30 4 0 0 0 0 0 0 0 0 0 0 0 0 0 0 0 1 1 0 0 0 0 0 0 0 0 0 0 0
0 8 17 20 5 0 0 0 0 0 0 0 0 0 0 0 0 0 0 0 0 0 0 0 0 0 0 0 0 0 0 0 0
8 5 12 4 5 0 0 0 0 0 0 0 0 0 0 0 0 0 0 0 0 0 0 1 1 1 0 0 0 0 0 0 0
21 6 8 5 4 0 0 0 0 0 0 0 0 0 0 0 0 0 0 0 0 0 0 1 1 1 2 1 0 0 0 0 0
9 12 4 3 1 0 0 0 0 0 0 0 0 0 0 0 0 0 0 0 0 0 0 0 1 2 2 3 1 0 0 0 0
0 8 2 5 1 0 0 0 0 0 0 0 0 0 0 0 0 0 0 0 0 0 0 0 0 0 1 2 6 1 0 0 0
7 37 20 12 5 0 0 0 0 0 0 0 0 0 0 0 0 0 0 0 0 0 0 0 0 0 3 34 54 88 116 47 11
1 9 14 11 5 1 0 0 0 0 0 0 0 0 0 0 0 0 0 0 0 0 0 0 13 1 0 0 56 109 123 94 60
0 2 9 6 7 2 0 0 0 0 0 1 27 14 21 0 7 5 0 0 0 0 0 0 1 14 26 9 4 5 27 74 136
7 10 12 6 2 0 0 0 1 0 3 7 29 34 14 0 0 0 0 4 4 1 0 0 0 1 3 16 11 2 2 2 6
4 7 9 4 0 0 0 0 7 13 34 20 23 41 44 12 19 16 3 1 5 0 0 0 0 0 0 0 0 0 0 0 0
1 0 0 0 0 0 0 0 6 25 92 141 75 116 36 30 19 12 28 0 0 0 0 0 0 0 0 0 0 0 0 0 0

GFSFLT1_con_mlcape_126.txt.gz
CAPE
244 4 187 142 153 125 68 4 5 2 2 0 0 0 0 0 0 0 0 1 8 5 5 5 4 7 8 12 12 4 12 10 15
274 245 224 102 112 85 3 3 3 2 0 0 0 0 0 0 0 0 0 7 7 7 1 0 5 4 8 14 6 6 6 7 5
296 258 175 69 85 0 4 2 0 0 0 0 0 0 0 0 0 0 1 8 6 7 3 8 1 6 5 4 4 7 3 4 6
247 256 196 63 61 2 3 3 0 0 0 0 0 0 0 0 0 0 1 4 3 8 4 6 3 3 3 2 4 5 1 3 4
47 133 195 109 59 2 2 0 0 0 0 0 0 0 0 0 0 0 1 5 6 4 4 4 5 5 4 3 3 2 4 6 5
31 75 130 90 35 0 0 0 0 0 0 0 0 0 0 0 0 0 1 4 3 2 3 2 3 2 2 2 2 1 3 4 4
9 84 108 68 0 0 0 0 0 0 0 0 0 0 0 0 0 0 0 2 2 2 1 0 0 0 0 1 1 1 0 0 0
44 75 91 13 0 0 0 0 0 0 0 0 0 0 0 0 0 0 0 1 2 0 1 0 0 0 0 0 0 0 0 0 0
11 50 59 0 0 0 0 0 0 0 0 0 0 0 0 0 0 0 0 0 1 0 0 0 0 0 0 0 0 0 0 0 0
5 10 30 0 0 0 0 0 0 0 0 0 0 0 0 0 0 0 0 0 0 1 0 0 0 0 0 0 0 0 0 0 0
1 0 1 1 0 0 0 0 0 0 0 0 0 0 0 0 0 0 0 0 0 0 1 1 1 1 0 0 0 0 0 0 0
0 0 0 0 0 0 0 0 0 0 0 0 0 0 0 0 0 0 0 0 0 0 0 1 1 1 3 2 0 0 0 0 0
2 0 0 0 0 0 0 0 0 0 0 0 0 0 0 0 0 0 0 0 0 0 0 0 1 3 4 4 3 0 0 0 0
3 18 0 0 0 0 0 0 0 0 0 0 0 0 0 0 0 0 0 0 0 0 0 0 0 0 12 4 6 9 1 0 0
14 33 3 0 0 0 0 0 0 0 0 0 0 0 0 0 0 0 0 0 0 0 0 0 0 0 2 22 68 91 147 89 44
2 5 4 2 0 0 0 0 0 0 0 0 0 0 0 0 0 0 0 0 0 0 0 0 0 0 0 13 32 89 130 139 74
0 0 17 4 0 0 0 0 0 0 0 0 5 16 7 1 0 0 0 0 0 0 0 5 0 0 5 4 6 39 53 87 94
0 0 13 3 0 0 0 0 0 0 0 0 15 8 0 3 0 0 0 0 0 0 0 0 0 0 0 1 5 9 1 2 1
0 9 11 2 0 0 0 0 0 0 0 0 9 14 14 0 0 0 2 0 0 0 0 0 0 0 0 0 0 0 0 0 0
20 14 3 0 0 0 0 0 0 2 9 7 1 3 8 0 0 0 3 0 0 0 0 0 0 0 0 0 0 0 0 0 0

GFSFLT1_con_mlcape_129.txt.gz
CAPE
89 173 332 215 61 108 35 12 9 1 0 0 0 0 0 0 0 0 2 0 7 5 11 10 6 11 12 7 7 9 15 6 8
199 262 269 169 76 16 0 9 5 0 0 0 0 0 0 0 0 0 2 2 8 6 8 7 1 1 3 5 8 1 9 6 10
289 325 181 149 26 1 2 3 1 0 0 0 0 0 0 0 0 0 3 9 9 7 6 5 8 4 4 8 6 4 6 5 4
433 304 170 110 33 4 3 1 0 0 0 0 0 0 0 0 0 0 1 7 7 4 2 1 2 3 5 5 5 5 5 2 5
355 265 179 90 0 1 4 0 0 0 0 0 0 0 0 0 0 0 1 3 6 3 5 4 5 6 4 3 4 4 4 6 5
168 165 96 63 0 1 1 0 0 0 0 0 0 0 0 0 0 0 2 4 4 3 3 3 3 2 2 1 1 2 2 2 5
91 84 47 43 0 1 0 0 0 0 0 0 0 0 0 0 0 0 1 3 2 2 1 1 2 1 0 0 0 0 1 1 2
38 61 57 0 0 0 0 0 0 0 0 0 0 0 0 0 0 0 0 1 2 1 1 1 1 1 0 0 0 0 0 0 0
35 54 9 0 0 0 0 0 0 0 0 0 0 0 0 0 0 0 0 0 1 1 1 0 0 0 0 0 0 0 0 0 0
23 5 2 0 0 0 0 0 0 0 0 0 0 0 0 0 0 0 0 0 0 1 0 0 0 0 0 0 0 0 0 0 0
4 1 1 0 0 0 0 0 0 0 0 0 0 0 0 0 0 0 0 0 0 0 1 1 0 0 0 0 0 0 0 0 0
0 2 0 0 0 0 0 0 0 0 0 0 0 0 0 0 0 0 0 0 0 0 0 0 1 0 1 1 0 0 0 0 0
1 0 0 0 0 0 0 0 0 0 0 0 0 0 0 0 0 0 0 0 0 0 0 0 0 1 3 2 3 1 0 0 0
0 1 0 0 0 0 0 0 0 0 0 0 0 0 0 0 0 0 0 0 0 0 0 0 0 0 0 5 6 16 31 7 0
0 2 0 0 0 0 0 0 0 0 0 0 0 0 0 0 0 0 0 0 0 0 0 0 0 0 0 7 32 49 129 108 84
7 0 0 0 0 0 0 0 0 0 0 0 0 0 0 0 0 0 0 0 0 0 0 0 0 0 2 0 8 76 91 72 76
14 6 0 0 0 0 0 0 0 0 0 0 0 0 0 0 0 0 0 0 0 0 0 0 0 0 0 0 3 21 50 90 105
9 8 5 0 0 0 0 0 0 0 0 0 0 0 0 0 0 0 0 0 0 0 0 0 0 0 0 0 1 5 15 22 6
22 3 3 0 0 0 0 0 0 0 0 0 7 0 0 0 0 0 0 0 0 0 0 0 0 0 0 0 0 0 0 0 0
5 0 1 0 0 0 0 0 0 0 0 0 5 0 0 0 0 0 0 0 0 0 0 0 0 0 0 0 0 0 0 0 1

GFSFLT1_con_mlcape_132.txt.gz
CAPE
14 390 354 57 220 94 31 0 0 0 0 0 0 0 0 0 0 0 0 1 8 11 4 13 18 8 9 7 9 12 5 8 19
415 430 271 120 118 79 8 9 0 0 0 0 0 0 0 0 0 0 3 7 5 3 5 6 6 7 9 7 8 9 6 14 10
502 417 201 148 86 15 0 0 0 0 0 0 0 0 0 0 0 0 6 5 13 5 5 4 3 5 9 6 7 5 5 3 9
528 411 233 98 0 2 1 1 0 0 0 0 0 0 0 0 0 0 2 3 10 3 5 3 5 7 6 5 6 5 5 6 4
509 345 278 68 0 1 1 0 0 0 0 0 0 0 0 0 0 0 1 2 8 6 7 5 4 5 5 6 6 7 7 5 6
282 227 216 41 0 2 0 0 0 0 0 0 0 0 0 0 0 0 2 6 7 8 5 5 4 2 3 5 4 3 3 4 4
144 137 123 15 0 2 0 0 0 0 0 0 0 0 0 0 0 0 2 5 5 4 3 2 2 2 1 1 1 0 1 1 1
83 89 85 7 0 1 0 0 0 0 0 0 0 0 0 0 0 0 2 3 2 1 1 1 1 1 0 0 0 0 0 0 0
90 72 41 0 0 0 0 0 0 0 0 0 0 0 0 0 0 0 0 0 1 1 1 0 0 0 0 0 0 0 0 0 0
98 24 18 1 0 0 0 0 0 0 0 0 0 0 0 0 0 0 0 0 0 0 0 0 0 0 0 0 0 0 0 0 0
104 35 3 0 0 0 0 0 0 0 0 0 0 0 0 0 0 0 0 0 0 0 0 0 0 0 0 0 0 0 0 0 0
83 10 1 0 0 0 0 0 0 0 0 0 0 0 0 0 0 0 0 0 0 0 1 1 1 1 2 1 0 0 0 0 0
49 4 2 0 0 0 0 0 0 0 0 0 0 0 0 0 0 0 0 0 0 0 0 0 0 1 1 4 3 1 0 0 0
67 7 1 0 0 0 0 0 0 0 0 0 0 0 0 0 0 0 0 0 0 0 0 0 0 0 0 11 8 4 6 0 0
74 2 0 0 0 0 0 0 0 0 0 0 0 0 0 0 0 0 0 0 0 0 0 0 0 0 0 5 36 59 49 52 73
32 2 0 0 0 0 0 0 0 0 0 0 0 0 0 0 0 0 0 0 0 0 0 0 0 0 0 0 7 16 17 14 26
10 0 0 0 0 0 0 0 0 0 0 0 0 0 0 0 0 0 0 0 0 0 0 0 0 0 0 0 0 0 10 23 36
6 0 0 0 0 0 0 0 0 0 0 0 0 0 0 0 0 0 0 0 0 0 0 0 0 0 0 0 0 7 10 23 19
0 0 0 0 0 0 0 0 0 0 0 0 0 0 0 0 0 0 0 0 0 0 0 0 0 0 0 0 0 0 0 0 4
0 0 0 0 0 0 0 0 0 0 0 0 0 0 0 0 0 0 0 0 0 0 0 0 0 0 0 0 0 0 0 0 0

GFSFLT1_con_mlcape_135.txt.gz
CAPE
225 398 145 42 165 105 84 77 31 1 0 0 0 0 0 0 0 1 2 6 7 9 13 5 13 18 1 10 13 4 3 13 20
538 487 176 228 72 33 56 28 0 0 0 0 0 0 0 0 0 0 1 1 9 13 10 8 7 15 4 8 16 15 15 17 6
629 419 189 234 83 17 44 0 0 0 0 0 0 0 0 0 0 0 2 13 8 6 6 7 5 4 9 7 6 7 1 6 14
639 396 178 143 130 55 2 0 0 0 0 0 0 0 0 0 0 0 0 6 10 3 8 8 4 6 5 6 4 6 4 5 5
686 398 158 92 40 0 0 0 0 0 0 0 0 0 0 0 0 0 1 4 7 6 3 7 5 6 5 4 3 5 4 3 5
503 341 147 36 2 6 0 0 0 0 0 0 0 0 0 0 0 0 3 8 7 6 7 4 3 4 4 4 2 2 2 2 3
342 244 165 2 0 0 0 0 0 0 0 0 0 0 0 0 0 0 3 6 5 4 3 1 1 1 1 1 1 1 1 2 1
203 148 128 0 0 1 0 0 0 0 0 0 0 0 0 0 0 0 0 2 3 2 1 1 0 0 0 1 0 0 0 0 0
237 170 70 0 0 0 0 0 0 0 0 0 0 0 0 0 0 0 0 0 2 1 0 1 0 0 0 0 0 0 0 0 0
175 137 62 1 0 0 0 0 0 0 0 0 0 0 0 0 0 0 0 0 0 1 0 0 0 0 0 0 0 0 0 0 0
171 128 38 1 0 0 0 0 0 0 0 0 0 0 0 0 0 0 0 0 0 1 0 1 1 1 0 0 0 0 0 0 0
153 126 43 2 0 0 0 0 0 0 0 0 0 0 0 0 0 0 0 0 0 0 1 2 2 2 2 3 0 0 0 0 0
180 94 48 2 0 0 0 0 0 0 0 0 0 0 0 0 0 0 0 0 0 0 0 0 1 2 4 3 2 2 1 0 0
146 78 57 0 0 0 0 0 0 0 0 0 0 0 0 0 0 0 0 0 0 0 0 0 0 0 0 3 6 9 25 7 1
116 64 46 7 0 0 0 0 0 0 0 0 0 0 0 0 0 0 0 0 0 0 0 0 0 0 0 0 27 55 58 30 30
129 74 25 12 0 0 0 0 0 0 0 0 0 0 0 0 0 0 0 0 0 0 0 0 0 0 0 0 0 14 28 9 24
19 79 31 1 0 0 0 0 0 0 0 0 0 0 0 0 0 0 0 0 0 0 0 0 0 0 0 0 0 0 2 8 29
0 33 28 1 0 0 0 0 0 0 0 0 0 0 0 0 0 0 0 0 0 0 0 0 0 0 0 0 0 0 7 21 15
0 28 42 1 0 0 0 0 0 0 0 0 0 0 0 0 0 0 0 0 0 0 0 0 0 0 0 0 0 0 1 5 12
0 31 23 27 0 0 0 0 0 0 0 0 0 0 0 0 0 0 0 0 0 0 0 0 0 0 0 0 0 0 0 1 0

GFSFLT1_con_mlcape_138.txt.gz
CAPE
236 516 210 66 163 247 128 9 0 0 0 0 0 0 0 0 0 0 6 5 12 12 17 24 9 5 19 22 9 8 7 7 9
259 270 116 124 129 136 70 24 1 1 0 0 0 0 0 0 0 0 0 1 35 15 14 11 11 2 8 7 5 7 6 3 4
641 352 71 265 50 119 58 0 0 0 0 0 0 0 0 0 0 0 2 3 21 4 13 8 6 5 4 4 5 5 2 5 4
703 468 146 208 89 53 0 0 0 0 0 0 0 0 0 0 0 0 1 10 11 8 3 5 4 4 3 3 3 2 3 5 6
699 437 272 193 81 43 0 0 0 0 0 0 0 0 0 0 0 0 2 5 3 4 4 3 5 3 3 2 4 4 4 2 6
575 364 225 172 132 56 0 0 0 0 0 0 0 0 0 0 0 0 1 2 4 4 4 4 4 4 3 2 3 4 4 2 3
502 321 202 125 17 25 4 0 0 0 0 0 0 0 0 0 0 0 3 4 3 4 3 1 2 2 2 2 2 2 1 2 0
280 273 196 38 0 11 9 0 0 0 0 0 0 0 0 0 0 0 3 4 3 2 2 2 1 1 0 1 0 0 0 0 0
238 264 146 3 0 0 0 0 0 0 0 0 0 0 0 0 0 0 0 2 2 3 2 2 2 1 0 0 0 0 0 0 0
172 165 84 0 0 0 0 0 0 0 0 0 0 0 0 0 0 0 0 0 2 3 2 2 2 1 0 0 0 0 0 0 0
144 125 51 0 0 0 0 0 0 0 0 0 0 0 0 0 0 0 0 0 0 1 3 3 3 3 2 1 0 0 0 0 0
153 104 68 14 0 0 0 0 0 0 0 0 0 0 0 0 0 0 0 0 0 0 3 6 4 5 2 1 2 0 0 0 0
158 129 93 20 1 0 0 0 0 0 0 0 0 0 0 0 0 0 0 0 0 0 0 1 4 7 7 4 13 12 7 0 0
180 170 98 7 1 0 0 0 0 0 0 0 0 0 0 0 0 0 0 0 0 0 0 0 0 0 3 14 21 25 34 18 11
210 154 82 2 1 0 0 0 0 0 0 0 0 0 0 0 0 0 0 0 0 0 0 0 0 0 0 0 3 45 73 44 11
49 98 10 4 1 0 0 0 0 0 0 0 0 0 0 0 0 0 0 0 0 0 0 0 0 0 0 0 0 0 9 34 38
89 75 10 4 1 0 0 0 0 0 0 0 0 0 0 0 0 0 0 0 0 0 0 0 0 0 0 0 0 0 0 4 18
8 69 23 6 3 0 0 0 0 0 0 0 0 0 0 0 0 0 0 0 0 0 0 0 0 0 0 0 0 0 0 4 19
8 3 19 12 5 0 0 0 0 0 0 0 0 0 0 0 0 0 0 0 0 0 0 0 0 0 0 0 0 0 0 0 0
2 0 1 47 11 0 0 0 0 0 0 0 0 0 0 0 0 0 0 0 0 0 0 0 0 0 0 0 0 0 0 0 0

GFSFLT1_con_mlcape_141.txt.gz
CAPE
40 69 334 127 335 286 194 32 3 1 0 1 0 0 0 0 1 4 5 13 7 33 31 5 17 22 23 16 13 11 10 10 8
499 645 256 261 259 262 72 0 0 0 0 1 0 0 0 0 0 0 2 30 21 15 18 14 10 13 8 10 10 6 2 6 4
689 428 238 282 250 192 46 0 2 0 0 0 0 0 0 0 0 0 5 31 8 13 13 4 5 7 8 8 10 6 5 7 5
621 313 269 353 275 192 18 7 9 0 0 0 0 0 0 0 0 2 4 11 3 7 6 6 4 3 5 5 1 8 2 6 4
754 367 339 401 293 83 0 0 2 0 0 0 0 0 0 0 0 2 3 7 7 3 5 4 3 2 1 2 2 5 3 5 2
809 531 345 334 275 55 0 0 0 0 0 0 0 0 0 0 0 0 2 3 6 5 7 4 3 2 2 0 0 2 0 2 2
643 511 370 336 247 95 0 0 0 0 0 0 0 0 0 0 0 0 2 3 5 5 4 2 2 3 1 0 0 0 1 0 0
305 392 408 284 198 147 4 0 0 0 0 0 0 0 0 0 0 0 0 3 6 4 3 2 2 1 0 0 0 0 0 0 0
189 341 347 230 133 83 11 0 0 0 0 0 0 0 0 0 0 0 0 2 6 4 2 3 3 1 0 0 0 0 0 0 0
330 312 259 132 55 25 1 0 0 0 0 0 0 0 0 0 0 0 0 0 3 5 4 3 3 1 0 0 0 0 0 0 0
269 281 206 91 19 11 0 0 0 0 0 0 0 0 0 0 0 0 0 0 0 2 5 5 3 4 2 1 0 0 0 0 0
299 209 180 37 6 2 0 0 0 0 0 0 0 0 0 0 0 0 0 0 0 0 6 0 0 1 3 3 1 0 0 0 0
272 187 147 20 3 2 0 0 0 0 0 0 0 0 0 0 0 0 0 0 0 0 0 2 4 3 4 11 16 17 5 0 0
250 198 152 71 4 2 0 0 0 0 0 0 0 0 0 0 0 0 0 0 0 0 0 0 0 0 3 25 34 47 69 19 22
103 158 158 57 2 2 1 0 0 0 0 0 0 0 0 0 0 0 0 0 0 0 0 0 0 0 0 0 6 23 50 68 28
4 93 116 54 1 1 0 0 0 0 0 0 0 0 0 0 0 0 0 0 0 0 0 0 0 0 0 0 0 0 0 0 0
0 7 62 65 10 2 0 0 0 0 0 0 0 0 0 0 0 0 0 0 0 0 0 0 0 0 0 0 0 0 0 0 0
0 0 25 35 29 2 0 0 0 0 0 0 0 0 0 0 0 0 0 0 0 0 0 0 0 0 0 0 0 0 0 0 6
0 0 1 41 29 2 1 0 0 0 0 0 0 0 0 0 0 0 0 0 0 0 0 0 0 0 0 0 0 0 0 0 1
0 0 4 17 48 23 1 1 0 0 0 0 0 0 0 0 0 0 0 0 0 0 0 0 0 0 0 0 0 0 0 0 0

GFSFLT1_con_mlcape_144.txt.gz
CAPE
384 403 390 482 512 480 356 117 14 4 1 2 0 0 0 0 0 9 13 2 11 22 0 16 25 7 15 15 12 5 7 11 14
408 422 444 423 469 462 180 16 2 1 1 1 0 0 0 2 0 1 6 12 6 9 8 5 14 15 14 15 5 4 11 8 5
362 437 471 454 544 380 168 8 0 0 0 0 0 0 0 0 0 1 11 2 11 17 5 11 9 10 10 13 8 3 7 7 8
770 683 419 527 501 312 106 2 0 0 0 0 0 0 0 0 0 2 17 1 10 5 6 5 3 8 8 3 3 3 6 1 4
611 446 383 396 399 295 132 77 0 0 0 0 0 0 0 0 1 1 6 4 3 3 2 2 5 4 0 2 3 1 5 2 3
729 367 399 381 397 267 69 83 45 0 0 0 0 0 0 1 2 2 2 5 8 6 4 3 3 2 1 0 0 0 1 1 0
442 608 312 393 358 185 14 12 25 0 0 0 0 0 0 0 2 4 0 5 8 8 5 4 3 1 0 0 0 0 0 0 0
528 515 413 472 274 288 29 0 1 0 0 0 0 0 0 0 0 2 1 7 10 7 2 2 1 0 0 0 0 0 0 0 0
299 226 529 408 318 278 93 9 1 2 0 0 0 0 0 0 0 0 0 8 5 6 5 3 0 0 0 0 0 0 0 0 0
496 383 539 479 314 258 187 66 6 1 0 0 0 0 0 0 0 1 0 2 8 5 5 5 1 0 0 0 0 0 0 0 0
581 418 406 437 378 257 189 84 8 0 0 0 0 0 0 0 0 0 0 0 2 6 6 6 3 2 2 2 0 0 0 0 0
616 597 518 345 362 217 131 65 11 0 0 0 0 0 0 0 0 0 0 0 0 0 6 5 2 0 0 2 4 2 0 0 0
589 522 459 402 159 136 90 53 12 0 0 0 0 0 0 0 0 0 0 0 0 0 0 4 3 3 6 10 15 15 2 0 0
331 432 324 319 154 36 17 0 0 0 0 0 0 0 0 0 0 0 0 0 0 0 0 0 0 2 3 28 39 65 90 29 20
79 260 280 225 111 15 4 4 0 0 0 0 0 0 0 0 0 0 0 0 0 0 0 0 0 0 0 0 12 26 44 61 39
0 111 118 200 118 21 2 3 0 0 0 0 0 0 0 1 0 0 0 0 0 0 0 0 0 0 0 0 0 0 0 0 12
0 0 73 95 109 37 3 1 0 0 0 0 0 0 0 0 0 0 0 0 0 0 0 0 0 3 7 0 0 0 0 0 0
0 0 29 90 87 30 1 1 0 0 0 0 0 0 0 0 0 0 0 0 0 0 0 0 0 11 20 8 0 0 0 0 0
0 0 1 9 80 78 2 0 0 0 0 0 0 0 0 0 0 0 0 0 0 0 0 0 0 12 18 12 2 0 0 0 14
0 0 0 0 93 64 29 0 1 0 0 0 0 0 0 0 0 0 0 0 0 0 0 0 0 0 6 9 0 0 0 0 0

GFSFLT1_con_mlcape_147.txt.gz
CAPE
577 462 452 587 501 435 518 314 16 2 0 0 0 0 0 0 2 10 2 9 15 0 9 23 4 11 12 6 3 16 5 10 8
567 352 365 518 568 359 425 127 3 2 0 0 0 0 0 2 6 9 3 22 4 0 2 11 10 13 4 5 7 3 8 4 6
485 321 371 427 531 411 282 49 7 1 1 0 0 0 0 1 4 13 2 1 6 3 11 10 12 5 10 7 4 1 5 7 6
381 353 534 315 349 345 276 55 21 3 1 0 0 0 0 1 5 31 1 5 4 6 3 6 3 10 3 5 2 4 0 4 4
545 652 604 354 385 306 122 4 0 0 0 0 0 0 0 1 0 16 1 0 9 8 4 3 5 2 3 0 4 0 0 1 2
523 594 462 413 333 285 103 37 0 0 0 0 0 0 0 5 5 10 0 4 7 6 6 4 3 1 0 0 0 0 0 1 0
117 370 354 317 358 298 157 101 0 0 0 0 0 0 0 3 2 5 0 5 7 9 5 2 1 0 0 0 0 0 0 0 0
152 554 418 412 311 337 140 72 17 0 1 0 0 0 0 4 2 0 0 0 9 13 4 0 0 0 0 0 0 0 0 0 0
475 541 554 435 415 361 168 75 26 2 3 0 0 0 0 0 1 0 0 0 9 9 4 1 0 0 0 0 0 0 0 0 0
583 422 523 503 353 337 217 32 17 7 6 0 0 0 0 0 0 1 0 0 7 8 5 2 2 0 0 0 0 0 0 0 0
564 494 482 476 464 379 255 46 24 11 10 0 0 0 0 0 0 0 0 0 0 6 1 3 3 2 3 2 0 0 0 0 0
603 541 535 550 462 334 284 126 44 10 8 2 0 0 0 0 0 0 0 0 0 0 5 5 3 4 4 5 1 1 0 0 0
311 562 509 559 512 413 242 130 68 6 5 1 0 0 0 0 0 0 0 0 0 0 0 0 3 3 2 2 4 7 1 0 0
0 274 609 593 492 438 327 150 83 11 0 0 0 0 0 0 0 0 0 0 0 0 0 0 0 0 2 4 21 33 55 51 18
0 38 363 540 384 357 310 182 82 27 0 0 0 0 0 0 0 0 0 0 0 0 0 0 0 0 0 3 36 52 50 46 32
0 4 125 368 274 213 168 107 53 0 0 0 0 0 0 0 0 0 0 0 0 0 0 0 0 0 0 0 0 3 16 30 16
0 0 28 214 303 239 150 48 40 10 2 0 0 0 0 0 0 0 0 0 0 0 0 0 0 0 0 0 0 0 0 1 6
0 0 0 121 257 160 110 8 44 0 0 0 0 0 0 0 0 0 0 0 0 0 0 0 0 0 0 8 4 0 0 0 0
0 0 0 0 103 125 91 62 8 1 0 0 0 0 0 0 0 0 0 0 0 0 0 0 0 0 0 16 19 19 0 0 0
0 0 0 0 0 66 101 74 18 0 0 0 0 0 0 0 0 0 0 0 0 0 0 0 0 0 0 15 18 1 0 0 9

GFSFLT1_con_mlcape_150.txt.gz
CAPE
570 486 560 555 403 414 408 206 1 2 0 0 0 0 0 0 3 3 31 12 24 7 13 9 12 17 11 4 15 7 4 7 7
397 270 492 456 449 240 369 124 2 2 0 0 0 0 0 1 4 1 10 12 11 12 28 12 27 3 7 7 4 6 4 2 1
460 215 438 417 523 318 343 29 3 0 0 0 0 0 0 1 10 5 7 4 8 13 21 5 2 11 8 7 5 6 8 6 5
544 240 487 458 544 406 219 32 2 0 0 0 0 0 0 0 5 5 2 0 7 11 3 6 7 0 3 1 2 4 4 5 6
497 278 455 478 498 378 249 64 0 0 0 0 0 0 0 0 0 11 0 0 8 6 3 2 6 3 0 0 0 0 1 1 1
267 327 432 465 367 346 245 39 0 0 0 0 0 0 0 0 0 0 0 0 2 5 3 2 2 2 0 0 0 0 0 0 0
314 466 599 368 352 333 187 65 0 0 0 0 0 0 0 0 0 0 0 0 1 4 0 0 0 0 0 0 0 0 0 0 0
251 254 305 353 283 246 172 79 6 0 0 0 0 0 0 0 0 0 0 0 3 3 0 0 0 0 0 0 0 0 0 0 0
309 240 339 351 258 237 137 55 23 0 0 0 0 0 0 0 0 0 0 0 2 6 3 0 0 0 0 0 0 0 0 0 0
455 340 452 366 301 228 171 37 6 0 0 0 0 0 0 0 0 0 0 0 0 2 2 1 1 0 0 0 0 0 0 0 0
481 416 523 424 365 238 256 51 0 0 0 0 0 0 0 0 0 0 0 0 0 2 3 1 1 1 1 1 0 0 0 0 0
641 513 407 457 401 274 297 102 1 2 2 0 0 0 0 0 0 0 0 0 0 0 0 2 2 1 1 2 3 0 0 0 0
69 463 468 494 481 243 270 178 5 3 4 0 0 0 0 0 0 0 0 0 0 0 0 0 0 1 1 1 4 4 0 0 0
0 2 216 420 427 310 122 179 106 16 5 0 0 0 0 0 0 0 0 0 0 0 0 0 0 0 0 1 4 2 1 2 17
0 1 35 275 299 177 179 215 171 96 22 2 0 0 0 0 0 0 0 0 0 0 0 0 0 0 0 0 0 21 44 40 27
0 0 12 216 222 194 168 212 179 141 65 2 0 0 0 0 0 0 0 0 0 0 0 0 0 0 0 0 0 4 21 30 28
0 0 0 63 256 258 224 240 185 132 51 14 0 0 0 0 0 0 0 0 0 0 0 0 0 0 0 0 0 0 0 11 29
0 0 0 54 135 242 234 229 212 149 79 1 0 0 0 0 0 0 0 0 0 0 0 0 0 0 0 0 0 0 0 0 12
0 0 0 0 83 180 274 325 210 119 73 18 0 0 0 0 0 0 0 0 0 0 0 0 0 0 0 0 0 0 0 3 17
0 0 0 0 0 105 209 222 223 146 91 8 7 0 0 0 0 0 0 0 0 0 0 0 0 0 0 0 0 0 22 25 19

GFSFLT1_con_mlcape_153.txt.gz
CAPE
264 415 429 528 534 527 413 250 0 0 0 0 0 0 0 6 9 21 17 0 7 13 15 17 11 7 14 9 9 3 5 5 4
343 404 490 521 476 440 414 105 0 0 0 0 0 0 0 1 4 9 14 14 23 40 15 27 5 7 6 3 6 12 2 3 4
490 187 489 463 484 466 442 103 0 0 0 0 0 0 0 0 8 16 5 0 6 6 15 9 17 6 2 4 5 6 5 3 6
643 212 393 483 499 472 373 128 15 0 0 0 0 0 0 0 0 2 0 6 9 8 3 8 2 4 3 7 5 3 2 1 4
705 333 321 516 499 434 265 160 48 0 0 0 0 0 0 0 0 0 0 0 9 4 3 1 4 1 3 4 2 2 1 2 0
467 400 205 476 470 439 292 205 48 0 0 0 0 0 0 0 0 0 0 0 0 1 0 0 2 1 0 0 0 0 0 0 0
242 123 120 338 481 363 351 216 28 0 0 0 0 0 0 0 0 0 0 0 0 0 0 0 0 0 0 0 0 0 0 0 0
379 176 178 515 387 291 343 168 14 0 0 0 0 0 0 0 0 0 0 0 0 1 3 0 0 0 0 0 0 0 0 0 0
371 266 166 347 298 181 229 100 2 0 0 0 0 0 0 0 0 0 0 0 0 1 3 1 1 0 0 0 0 0 0 0 0
421 241 160 244 220 153 79 40 1 0 0 0 0 0 0 0 0 0 0 0 0 0 3 4 1 0 0 0 0 0 0 0 0
505 420 324 227 241 158 69 14 12 0 0 0 0 0 0 0 0 0 0 0 0 0 0 1 1 1 0 0 0 0 0 0 0
263 495 421 396 294 236 113 25 9 2 0 0 0 0 0 0 0 0 0 0 0 0 0 1 2 2 2 2 1 1 0 0 0
0 243 441 508 419 266 118 75 39 2 0 0 0 0 0 0 0 0 0 0 0 0 0 0 0 1 2 3 5 4 0 0 0
0 3 44 190 403 280 135 138 69 42 1 0 0 0 0 0 0 0 0 0 0 0 0 0 0 0 0 2 2 2 8 1 0
0 0 0 10 174 178 156 158 137 98 56 26 7 0 0 0 0 0 0 0 0 0 0 0 0 0 0 0 0 1 28 16 46
0 0 0 0 0 25 216 147 109 135 133 42 3 3 0 0 0 0 0 0 0 0 0 0 0 0 0 0 0 0 31 53 84
0 0 0 0 3 77 67 178 168 112 122 69 12 1 0 0 0 0 0 0 0 0 0 0 0 0 0 0 0 0 0 11 51
0 0 0 0 1 112 131 118 176 160 150 105 10 0 1 0 0 0 0 0 0 0 0 0 0 0 0 0 0 1 0 0 2
0 0 0 0 0 45 199 270 176 147 112 112 34 0 0 4 4 0 0 0 0 0 0 0 0 0 0 0 3 0 0 0 0
0 0 0 0 0 39 136 117 179 151 157 124 72 72 0 0 0 0 0 0 0 0 0 0 0 0 0 0 0 4 22 16 19

GFSFLT1_con_mlcape_159.txt.gz
CAPE
276 102 490 675 634 702 545 143 0 0 0 0 0 0 0 0 0 0 0 0 0 4 10 3 26 15 4 6 2 1 6 4 3
562 109 339 583 554 723 500 198 1 0 0 0 0 0 0 0 0 0 0 1 1 2 12 6 4 12 10 6 4 7 6 11 8
714 301 199 505 559 674 634 307 56 0 0 0 0 0 0 0 0 0 0 16 33 11 15 0 10 4 7 8 3 5 5 4 1
774 501 284 364 545 532 559 407 183 0 0 0 0 0 0 0 0 0 0 0 0 6 9 21 5 4 5 5 3 2 3 2 2
875 653 409 275 386 486 496 393 240 40 0 0 0 0 0 0 0 0 0 0 0 2 5 9 6 5 0 4 2 0 2 0 1
751 722 454 325 303 391 424 412 235 106 4 0 0 0 0 0 0 0 0 0 0 0 0 4 6 6 5 3 1 0 0 0 0
609 610 549 381 322 381 405 386 234 116 2 0 0 0 0 0 0 0 0 0 0 0 0 0 0 2 1 0 1 0 0 0 0
458 418 414 343 254 373 424 340 246 85 1 0 0 0 0 0 0 0 0 0 0 1 0 1 2 2 3 1 0 0 0 0 0
394 333 326 221 141 137 324 290 162 74 2 0 0 0 0 0 0 0 0 0 3 5 0 2 4 5 4 3 2 1 0 0 0
96 276 280 263 191 45 47 177 91 20 3 0 0 0 0 0 0 0 0 0 0 12 2 5 6 6 3 4 2 0 0 0 0
0 0 7 116 281 259 126 138 62 20 11 9 0 0 0 0 0 0 0 0 0 0 3 7 9 9 6 4 3 2 1 0 0
0 0 0 2 181 278 297 175 37 8 6 0 0 0 0 0 0 0 0 0 0 0 0 0 4 8 9 8 7 4 4 3 2
0 0 0 0 2 147 254 235 104 44 7 7 0 0 0 0 0 0 0 0 0 0 0 0 0 0 7 8 13 4 7 3 1
0 0 0 0 0 0 75 215 206 153 61 21 8 0 0 0 0 0 0 0 0 0 0 0 0 0 5 4 12 9 8 3 5
0 0 0 0 0 0 0 19 69 122 138 47 31 7 0 0 0 0 0 0 0 0 0 0 0 0 4 6 1 6 9 58 21
0 0 0 0 0 0 0 0 0 8 8 13 8 52 1 0 0 0 0 0 0 0 0 0 0 0 0 0 0 1 0 17 55
0 0 0 0 0 0 0 0 0 0 7 13 15 39 34 4 0 0 0 0 0 0 0 0 0 0 0 0 0 0 0 0 0
0 0 0 0 0 0 0 0 0 0 0 5 21 12 0 0 0 0 0 0 0 0 0 0 0 0 0 0 0 0 0 0 1
0 0 0 0 0 0 0 0 0 30 18 38 69 54 0 0 2 0 0 0 0 0 0 0 0 0 0 0 0 0 0 0 6
0 0 0 0 0 0 0 0 0 1 44 57 40 43 25 0 0 0 0 0 1 0 0 0 0 0 0 0 0 0 0 0 0

GFSFLT1_con_mlcape_162.txt.gz
CAPE
340 133 397 660 591 512 621 303 0 0 12 19 1 0 0 0 0 0 0 0 0 6 0 14 15 8 15 15 4 7 7 11 5
624 181 148 511 552 612 593 237 17 0 1 12 0 0 0 0 0 0 0 0 10 10 8 13 18 8 1 5 3 14 13 5 6
844 428 92 408 541 647 662 340 92 0 0 31 6 0 0 0 0 0 0 1 27 24 19 3 3 9 3 2 6 8 3 3 3
841 623 331 202 528 700 660 504 225 9 0 21 12 0 0 0 0 0 0 0 3 18 19 14 7 1 3 5 1 4 1 2 0
744 764 562 328 153 522 554 552 401 147 0 0 0 0 0 0 0 0 0 0 0 0 0 12 7 5 2 3 2 1 6 2 1
657 774 672 509 273 203 442 494 424 223 43 0 0 0 0 0 0 0 0 0 0 5 1 0 5 4 3 0 0 0 0 0 0
517 613 635 559 467 256 328 332 420 277 69 0 0 0 0 0 0 0 0 0 7 15 5 1 4 9 7 7 4 3 2 0 0
446 423 462 480 396 393 368 383 347 198 68 1 0 0 0 0 0 0 0 0 6 24 8 2 3 9 5 5 5 3 1 0 0
0 236 349 281 309 312 285 215 247 138 28 5 0 0 0 0 0 0 0 0 0 16 24 9 5 5 7 8 4 1 0 0 0
0 0 0 60 185 231 201 48 60 89 17 0 0 0 0 0 0 0 0 0 0 0 23 35 8 7 8 12 9 4 1 0 0
0 0 0 0 0 56 183 68 11 19 20 0 0 0 0 0 0 0 0 0 0 0 2 23 15 9 4 6 5 9 5 3 0
0 0 0 0 0 9 37 130 89 22 19 8 1 0 0 0 0 0 0 0 0 0 0 0 30 14 8 11 3 2 4 4 5
0 0 0 0 0 0 0 16 25 88 51 10 9 1 0 0 0 0 0 0 0 0 0 0 4 64 20 7 11 11 4 8 5
0 0 0 0 0 0 0 0 0 0 50 80 12 15 3 0 0 0 0 0 0 0 0 0 0 1 61 16 6 11 13 10 9
0 0 0 0 0 0 0 0 0 0 3 0 20 70 37 46 1 0 0 0 0 0 0 0 0 0 5 36 14 8 8 5 16
0 0 0 0 0 0 0 0 0 0 0 3 6 0 49 95 5 6 0 0 0 0 0 0 0 0 0 3 20 30 46 50 7
0 0 0 0 0 0 0 0 0 0 0 1 21 11 4 1 1 7 4 0 0 0 0 0 0 0 0 3 7 9 11 20 7
0 0 0 0 0 0 0 0 0 0 0 0 9 5 4 6 1 2 3 3 0 0 0 0 0 0 0 0 0 0 0 0 8
0 0 0 0 0 0 0 0 0 0 0 0 6 22 6 6 16 0 0 0 0 8 0 0 0 0 0 0 0 0 0 0 0
0 0 0 0 0 0 0 0 0 0 0 0 20 22 27 53 23 4 3 0 1 0 0 0 0 0 0 0 0 1 0 0 0